Stations météo

réclame
Mon MeteoGroup
San Sebastian/Igueldo, Espagne (8027): Température de l'air & dewpoint: 11.02.2018 20:00:00 - 17.02.2018 20:00:00 (CET)San Sebastian/Igueldo, Espagne (8027): Vitesse du vent: 11.02.2018 20:00:00 - 17.02.2018 20:00:00 (CET)San Sebastian/Igueldo, Espagne (8027): Direction du vent: 11.02.2018 20:00:00 - 17.02.2018 20:00:00 (CET)San Sebastian/Igueldo, Espagne (8027): reduced air pressure: 11.02.2018 20:00:00 - 17.02.2018 20:00:00 (CET)San Sebastian/Igueldo, Espagne (8027): visibility: 11.02.2018 20:00:00 - 17.02.2018 20:00:00 (CET)
Date & Time tt [°C] td [°C] ff [km/h] ff [knt] dd ppp [hPa] vv [km]
17.02.2018 20:00:00 - - - - - - -
17.02.2018 19:00:00 8,6 6,9 13 7 NE 1027,6 25
17.02.2018 18:00:00 - - - - - - -
17.02.2018 17:00:00 - - - - - - -
17.02.2018 16:00:00 10,1 7,0 16 9 NNE 1027,1 30
17.02.2018 15:00:00 - - - - - - -
17.02.2018 14:00:00 - - - - - - -
17.02.2018 13:00:00 9,8 7,9 24 13 NNE 1027,3 20
17.02.2018 12:00:00 - - - - - - -
17.02.2018 11:00:00 - - - - - - -
17.02.2018 10:00:00 8,5 7,3 16 9 NNW 1026,2 15
17.02.2018 09:00:00 - - - - - - -
17.02.2018 08:00:00 - - - - - - -
17.02.2018 07:00:00 8,0 7,1 13 7 NW 1025,1 15
17.02.2018 06:00:00 - - - - - - -
17.02.2018 05:00:00 - - - - - - -
17.02.2018 04:00:00 13,8 13,8 39 21 NNE 1022,6 5
17.02.2018 03:00:00 - - - - - - -
17.02.2018 02:00:00 - - - - - - -
17.02.2018 01:00:00 10,8 10,8 16 9 N 1021,3 0,1
17.02.2018 00:00:00 - - - - - - -
16.02.2018 23:00:00 - - - - - - -
16.02.2018 22:00:00 15,0 9,6 11 6 SW 1019,5 30
16.02.2018 21:00:00 - - - - - - -
16.02.2018 20:00:00 - - - - - - -
16.02.2018 19:00:00 14,8 10,6 8 4 S 1019,3 50
16.02.2018 18:00:00 - - - - - - -
16.02.2018 17:00:00 - - - - - - -
16.02.2018 16:00:00 15,4 10,2 9 5 E 1019,6 20
16.02.2018 15:00:00 - - - - - - -
16.02.2018 14:00:00 - - - - - - -
16.02.2018 13:00:00 14,8 12,1 2 1 SSW 1022,5 8
16.02.2018 12:00:00 - - - - - - -
16.02.2018 11:00:00 - - - - - - -
16.02.2018 10:00:00 13,2 10,2 9 5 SW 1022,8 40
16.02.2018 09:00:00 - - - - - - -
16.02.2018 08:00:00 - - - - - - -
16.02.2018 07:00:00 12,2 10,3 5 3 SSW 1022,8 40
16.02.2018 06:00:00 - - - - - - -
16.02.2018 05:00:00 - - - - - - -
16.02.2018 04:00:00 11,8 9,9 4 2 W 1023,0 40
16.02.2018 03:00:00 - - - - - - -
16.02.2018 02:00:00 - - - - - - -
16.02.2018 01:00:00 14,8 9,6 16 9 N 1022,8 45
16.02.2018 00:00:00 - - - - - - -
15.02.2018 23:00:00 - - - - - - -
15.02.2018 22:00:00 15,6 9,3 18 10 SW 1021,4 40
15.02.2018 21:00:00 - - - - - - -
15.02.2018 20:00:00 - - - - - - -
15.02.2018 19:00:00 16,1 8,8 26 14 SW 1021,2 50
15.02.2018 18:00:00 - - - - - - -
15.02.2018 17:00:00 - - - - - - -
15.02.2018 16:00:00 18,2 10,3 9 5 WSW 1020,4 55
15.02.2018 15:00:00 - - - - - - -
15.02.2018 14:00:00 - - - - - - -
15.02.2018 13:00:00 16,9 9,1 18 10 SW 1020,1 60
15.02.2018 12:00:00 - - - - - - -
15.02.2018 11:00:00 - - - - - - -
15.02.2018 10:00:00 13,0 8,3 18 10 SSW 1019,7 50
15.02.2018 09:00:00 - - - - - - -
15.02.2018 08:00:00 - - - - - - -
15.02.2018 07:00:00 11,8 7,7 18 10 SW 1018,5 50
15.02.2018 06:00:00 - - - - - - -
15.02.2018 05:00:00 - - - - - - -
15.02.2018 04:00:00 11,6 7,9 15 8 SW 1017,9 50
15.02.2018 03:00:00 - - - - - - -
15.02.2018 02:00:00 - - - - - - -
15.02.2018 01:00:00 11,5 8,0 13 7 SW 1017,1 50
15.02.2018 00:00:00 - - - - - - -
14.02.2018 23:00:00 - - - - - - -
14.02.2018 22:00:00 11,7 8,4 9 5 SW 1016,2 50
14.02.2018 21:00:00 - - - - - - -
14.02.2018 20:00:00 - - - - - - -
14.02.2018 19:00:00 12,2 8,3 18 10 W 1014,3 50
14.02.2018 18:00:00 - - - - - - -
14.02.2018 17:00:00 - - - - - - -
14.02.2018 16:00:00 11,2 8,8 15 8 WSW 1013,4 35
14.02.2018 15:00:00 - - - - - - -
14.02.2018 14:00:00 - - - - - - -
14.02.2018 13:00:00 10,4 8,0 21 11 W 1014,5 12
14.02.2018 12:00:00 - - - - - - -
14.02.2018 11:00:00 - - - - - - -
14.02.2018 10:00:00 7,8 6,6 28 15 SW 1013,8 45
14.02.2018 09:00:00 - - - - - - -
14.02.2018 08:00:00 - - - - - - -
14.02.2018 07:00:00 5,7 5,0 15 8 SW 1014,8 40
14.02.2018 06:00:00 - - - - - - -
14.02.2018 05:00:00 - - - - - - -
14.02.2018 04:00:00 6,6 4,6 8 4 WSW 1015,9 40
14.02.2018 03:00:00 - - - - - - -
14.02.2018 02:00:00 - - - - - - -
14.02.2018 01:00:00 6,6 3,8 15 8 W 1016,8 40
14.02.2018 00:00:00 - - - - - - -
13.02.2018 23:00:00 - - - - - - -
13.02.2018 22:00:00 6,6 4,6 16 9 W 1016,8 30
13.02.2018 21:00:00 - - - - - - -
13.02.2018 20:00:00 - - - - - - -
13.02.2018 19:00:00 6,5 4,5 24 13 NNW 1016,0 20
13.02.2018 18:00:00 - - - - - - -
13.02.2018 17:00:00 - - - - - - -
13.02.2018 16:00:00 7,0 2,7 22 12 NW 1013,5 20
13.02.2018 15:00:00 - - - - - - -
13.02.2018 14:00:00 - - - - - - -
13.02.2018 13:00:00 6,2 1,1 28 15 WSW 1013,6 35
13.02.2018 12:00:00 - - - - - - -
13.02.2018 11:00:00 - - - - - - -
13.02.2018 10:00:00 5,9 -2,0 41 22 SW 1012,7 20
13.02.2018 09:00:00 - - - - - - -
13.02.2018 08:00:00 - - - - - - -
13.02.2018 07:00:00 3,8 -3,0 29 16 SW 1015,0 30
13.02.2018 06:00:00 - - - - - - -
13.02.2018 05:00:00 - - - - - - -
13.02.2018 04:00:00 1,6 -1,5 13 7 SW 1019,1 40
13.02.2018 03:00:00 - - - - - - -
13.02.2018 02:00:00 - - - - - - -
13.02.2018 01:00:00 1,6 0,0 9 5 SW 1022,0 35
13.02.2018 00:00:00 - - - - - - -
12.02.2018 23:00:00 - - - - - - -
12.02.2018 22:00:00 2,6 0,5 8 4 W 1023,5 35
12.02.2018 21:00:00 - - - - - - -
12.02.2018 20:00:00 - - - - - - -
12.02.2018 19:00:00 4,6 1,8 15 8 N 1023,3 30
12.02.2018 18:00:00 - - - - - - -
12.02.2018 17:00:00 - - - - - - -
12.02.2018 16:00:00 5,4 1,9 16 9 N 1023,1 40
12.02.2018 15:00:00 - - - - - - -
12.02.2018 14:00:00 - - - - - - -
12.02.2018 13:00:00 4,6 2,6 4 2 N 1023,6 30
12.02.2018 12:00:00 - - - - - - -
12.02.2018 11:00:00 - - - - - - -
12.02.2018 10:00:00 3,2 2,8 4 2 SSW 1023,5 10
12.02.2018 09:00:00 - - - - - - -
12.02.2018 08:00:00 - - - - - - -
12.02.2018 07:00:00 4,0 2,2 0 0 N 1022,3 30
12.02.2018 06:00:00 - - - - - - -
12.02.2018 05:00:00 - - - - - - -
12.02.2018 04:00:00 5,6 3,9 29 16 NE 1021,7 30
12.02.2018 03:00:00 - - - - - - -
12.02.2018 02:00:00 - - - - - - -
12.02.2018 01:00:00 6,2 5,8 22 12 NNW 1021,3 10
12.02.2018 00:00:00 - - - - - - -
11.02.2018 23:00:00 - - - - - - -
11.02.2018 22:00:00 7,3 7,2 28 15 N 1020,4 15
11.02.2018 21:00:00 - - - - - - -
11.02.2018 20:00:00 - - - - - - -

tt = Température de l'air
td = dewpoint
ff = Vitesse du vent
dd = Direction du vent
ppp = reduced air pressure
vv = visibility

stations d'obs. à proximité